Location: Killarney
(45.9719°N, 81.5115°W)
Time: 23:39:24
(UTC-04:00)

ISS - Visible Passes

Search period start: 25 September 2017 00:00
Search period end: 05 October 2017 00:00
Orbit: 401 x 407 km, 51.6° (Epoch: 26 September)

Date Brightness Start Highest point End Pass type
(mag) Time Alt. Az. Time Alt. Az. Time Alt. Az.
25 Sep -1.6 19:55:15 10° SSE 19:56:24 11° SE 19:57:32 10° ESE visible
25 Sep -1.7 21:29:05 10° SW 21:30:17 21° SW 21:30:17 21° SW visible
26 Sep -3.4 20:36:58 10° SW 20:40:03 41° SE 20:40:35 38° ESE visible
27 Sep -2.5 19:45:09 10° SSW 19:47:51 24° SE 19:50:33 10° E visible
27 Sep -2.8 21:20:51 10° WSW 21:23:22 45° W 21:23:22 45° W visible
28 Sep -3.9 20:28:26 10° WSW 20:31:42 86° SSE 20:33:19 28° ENE visible
28 Sep -0.5 22:05:26 10° WNW 22:05:59 14° WNW 22:05:59 14° WNW visible
29 Sep -3.5 19:36:12 10° SW 19:39:22 50° SE 19:42:33 10° ENE visible
29 Sep -2.6 21:12:48 10° W 21:15:48 39° NNW 21:15:48 39° NNW visible
30 Sep -3.2 20:20:12 10° W 20:23:25 53° NNW 20:25:33 19° NE visible
30 Sep -0.6 21:57:24 10° WNW 21:58:11 15° NW 21:58:11 15° NW visible
01 Oct -2.4 21:04:46 10° WNW 21:07:44 31° N 21:07:50 31° N visible
02 Oct -2.6 20:12:06 10° W 20:15:10 36° NNW 20:17:26 16° NE visible
02 Oct -0.7 21:49:13 10° WNW 21:50:04 16° NW 21:50:04 16° NW visible
03 Oct -2.3 20:56:38 10° WNW 20:59:34 29° N 20:59:38 29° N visible
04 Oct -2.3 20:03:59 10° WNW 20:06:56 30° N 20:09:09 15° NE visible
04 Oct -0.9 21:40:50 10° NW 21:41:47 17° NW 21:41:47 17° NW visible
